Regional Weather Roundup
Issued by NWS Goodland, KS

Home | Current Version | Previous Version | Text Only | Print | Product List | Glossary Off
Versions: 1 2 3 4 5 6 7 8 9 10 11 12 13 14 15 16 17 18 19 20 21 22 23 24 25 26 27 28 29 30 31 32 33 34 35 36 37 38 39 40 41 42 43 44 45 46 47 48 49 50

000
ASUS43 KGLD 250759
RWRGLD

GOODLAND FORECAST AREA HOURLY WEATHER ROUNDUP
NATIONAL WEATHER SERVICE GOODLAND KS
200 AM MDT SUN JUN 25 2017

...OFFICIAL OBSERVATIONS...

CITY           SKY/WX    TMP DP  RH WIND       PRES   REMARKS
GOODLAND KS    LGT RAIN  56  52  86 SE9       30.35F
HILL CITY KS   MOCLDY    61  59  93 NE3       30.29S
IMPERIAL NEB   CLEAR     51  45  79 SW3       30.32F
MCCOOK NEB     CLEAR     53  49  86 SW8       30.29F
AKRON CO       PTCLDY    56  51  84 S13       30.33F
BURLINGTON CO  CLOUDY    56  52  86 E13       30.36R
LIMON CO       CLOUDY    55  48  77 E7        30.37S
$$

...UNOFFICIAL OBSERVATIONS...

CITY           SKY/WX    TMP DP  RH WIND       PRES   REMARKS
LENORA KS        N/A     58  32  37 MISG        N/A
NORTON KS      CLEAR     54  41  62 CALM      30.28F
SHARON SPRINGS   N/A     58  53  85 E6          N/A
TRENTON NEB      N/A     54  32  43 CALM        N/A
KIT CARSON CO    N/A     57  49  74 CALM        N/A
YUMA CO        CLOUDY    54  50  87 S5        30.34R
$$



USA.gov is the U.S. government's official web portal to all federal, state and local government web resources and services.